Alexandria Esle, LA

1:43 PM CDT on June 28, 2017 (GMT -0500)
Alexandria Esler Regional

Weather History for KESF - January, 2014

Change the Weather History Date:

Monday, January 27, 2014

  Actual Average Record
Temperature  
Mean Temperature 44 °F -  
Max Temperature 55 °F 61 °F 79 °F (1975)
Min Temperature 33 °F 40 °F 22 °F (1966)
Degree Days  
Heating Degree Days 20    
Moisture  
Dew Point 39 °F    
Average Humidity 69    
Maximum Humidity 97    
Minimum Humidity 31    
Precipitation  
Precipitation 0.00 in - - ()
Sea Level Pressure  
Sea Level Pressure 30.00 in    
Wind  
Wind Speed 4 mph (NE)    
Max Wind Speed 14 mph    
Max Gust Speed 24 mph    
Visibility 7 miles    
Events Fog    
Averages and records for this station are not official NWS values.
T = Trace of Precipitation, MM = Missing Value Source: NWS Daily Summary

Daily Weather History Graph

Daily Weather History Graph

Search for Another Location

Airport or City:

Trip Planner

Search our weather history database for the weather conditions in past years. The results will help you decide how hot, cold, wet, or windy it might be!

Date:

Astronomy

Jan. 27, 2014 Rise Set
Actual Time 7:04 AM CST 5:39 PM CST
Civil Twilight 6:38 AM CST 6:05 PM CST
Nautical Twilight 6:09 AM CST 6:34 PM CST
Astronomical Twilight 5:40 AM CST 7:03 PM CST
Moon 3:43 AM CST (1/27) 2:28 PM CST (1/27)
Length of Visible Light 11h 26m
Length of Day
10h 35m
Waning Crescent, 14% of the Moon is Illuminated
Jan 27
Waning Crescent
Jan 30
New
Feb 6
First Quarter
Feb 14
Full
Feb 22
Last Quarter

Hourly Weather History & Observations

Time (CST) Temp. Windchill Dew Point Humidity Pressure Visibility Wind Dir Wind Speed Gust Speed Precip Events Conditions
12:53 AM 55.9 °F - 51.1 °F 84% 29.84 in 10.0 mi South 3.5 mph - N/A   Overcast
1:06 AM 55.9 °F - 51.1 °F 84% 29.84 in 10.0 mi Calm Calm - N/A   Overcast
1:53 AM 55.9 °F - 51.1 °F 84% 29.84 in 10.0 mi Calm Calm - N/A   Overcast
2:53 AM 55.9 °F - 52.0 °F 87% 29.85 in 10.0 mi Calm Calm - N/A   Overcast
3:42 AM 55.0 °F - 52.0 °F 89% 29.86 in 8.0 mi Calm Calm - N/A   Overcast
3:53 AM 55.0 °F - 52.0 °F 89% 29.85 in 5.0 mi ESE 3.5 mph - N/A   Overcast
4:53 AM 55.0 °F - 52.0 °F 89% 29.87 in 3.0 mi Calm Calm - N/A   Overcast
4:58 AM 55.0 °F - 52.0 °F 89% 29.87 in 2.5 mi Calm Calm - N/A   Overcast
5:31 AM 54.0 °F - 52.0 °F 93% 29.89 in 1.8 mi Calm Calm - N/A   Overcast
5:48 AM 53.6 °F - 51.8 °F 94% 29.90 in 2.0 mi ENE 3.5 mph - N/A   Overcast
5:53 AM 54.0 °F - 52.0 °F 93% 29.90 in 1.8 mi ENE 3.5 mph - N/A   Overcast
6:06 AM 54.0 °F - 52.0 °F 93% 29.91 in 1.8 mi NE 3.5 mph - N/A   Overcast
6:27 AM 54.0 °F - 52.0 °F 93% 29.92 in 0.5 mi Calm Calm - N/A Fog Fog
6:39 AM 54.0 °F - 52.0 °F 93% 29.92 in 0.2 mi Calm Calm - N/A Fog Fog
6:53 AM 53.1 °F - 51.1 °F 93% 29.92 in 0.2 mi North 3.5 mph - N/A Fog Fog
7:18 AM 53.1 °F - 51.1 °F 93% 29.93 in 0.5 mi Variable 3.5 mph - N/A Fog Fog
7:31 AM 54.0 °F - 52.0 °F 93% 29.94 in 2.0 mi Calm Calm - N/A   Overcast
7:53 AM 54.0 °F - 52.0 °F 93% 29.94 in 1.8 mi Calm Calm - N/A   Overcast
8:02 AM 54.0 °F - 53.1 °F 97% 29.94 in 1.2 mi Calm Calm - N/A   Overcast
8:19 AM 55.0 °F - 53.1 °F 93% 29.95 in 3.0 mi NE 4.6 mph - N/A   Overcast
8:29 AM 53.1 °F - 50.0 °F 89% 29.97 in 8.0 mi NNE 8.1 mph 16.1 mph N/A   Overcast
8:53 AM 53.1 °F - 45.0 °F 74% 29.99 in 10.0 mi NE 11.5 mph 20.7 mph N/A   Overcast
9:16 AM 52.0 °F - 42.1 °F 69% 30.02 in 10.0 mi NNE 9.2 mph 20.7 mph N/A   Overcast
9:53 AM 52.0 °F - 36.0 °F 54% 30.04 in 10.0 mi NNE 11.5 mph 23.0 mph N/A   Overcast
10:53 AM 51.1 °F - 33.1 °F 50% 30.07 in 10.0 mi NNE 9.2 mph 24.2 mph N/A   Overcast
11:53 AM 52.0 °F - 30.9 °F 45% 30.07 in 10.0 mi NE 10.4 mph 23.0 mph N/A   Overcast
12:53 PM 52.0 °F - 30.0 °F 43% 30.07 in 10.0 mi NE 8.1 mph 19.6 mph N/A   Overcast
1:53 PM 52.0 °F - 27.0 °F 38% 30.05 in 10.0 mi NNE 13.8 mph 24.2 mph N/A   Mostly Cloudy
2:53 PM 51.1 °F - 27.0 °F 39% 30.07 in 10.0 mi North 10.4 mph 18.4 mph N/A   Overcast
3:53 PM 48.0 °F - 21.9 °F 36% 30.12 in 10.0 mi NNE 9.2 mph 19.6 mph N/A   Overcast
4:53 PM 45.0 °F 40.6 °F 21.0 °F 39% 30.11 in 10.0 mi NNE 8.1 mph 20.7 mph N/A   Clear
5:53 PM 43.0 °F 37.7 °F 18.0 °F 37% 30.14 in 10.0 mi NNE 9.2 mph - N/A   Partly Cloudy
6:53 PM 41.0 °F 33.9 °F 12.9 °F 32% 30.18 in 10.0 mi NNE 12.7 mph 21.9 mph N/A   Partly Cloudy
7:53 PM 39.9 °F 35.1 °F 12.0 °F 32% 30.21 in 10.0 mi Variable 6.9 mph 24.2 mph N/A   Overcast
8:53 PM 37.0 °F 32.4 °F 10.9 °F 34% 30.21 in 10.0 mi Variable 5.8 mph - N/A   Clear
9:53 PM 36.0 °F 29.0 °F 9.0 °F 33% 30.21 in 10.0 mi NE 9.2 mph 18.4 mph N/A   Clear
10:53 PM 34.0 °F 27.2 °F 6.1 °F 31% 30.23 in 10.0 mi NE 8.1 mph 19.6 mph N/A   Clear
11:53 PM 33.1 °F - 7.0 °F 34% 30.24 in 10.0 mi North - - N/A   Partly Cloudy